Tracking 26922 objects as of 1-Feb-2023
HD Live streaming from Space Station
objects crossing your sky now

CZ-6A DEB

Track CZ-6A DEB now!
10-day predictions


NORAD ID: 54309
Int'l Code: 2022-151BC
Perigee: 837.9 km
Apogee: 891.7 km
Inclination: 98.8 °
Period: 102.1 minutes
Semi major axis: 7235 km
RCS: Unknown
Launch date: November 11, 2022
Source: People's Republic of China (PRC)
Launch site: Taiyaun Space Center, China (TSC)

Note: This is SATELLITE DEBRIS
Your satellite tracking list
Your tracking list is empty




NASA's NSSDC Master Catalog

Two Line Element Set (TLE):
1 54309U 22151BC  23031.51491561  .00000528  00000-0  31926-3 0  9992
2 54309  98.8175  40.0436 0037227 209.9445 149.9596 14.10500578 10782
Source of the keplerian elements: AFSPC